Year,Month,Day,Hour,Minute,Value (Times are PST for windgust in km/hr)
2017,05,24,00,00,32.20
2017,05,24,00,01,32.20
2017,05,24,00,02,32.20
2017,05,24,00,03,29.00
2017,05,24,00,04,30.60
2017,05,24,00,05,29.00
2017,05,24,00,06,48.30
2017,05,24,00,07,37.00
2017,05,24,00,08,33.80
2017,05,24,00,09,29.00
2017,05,24,00,10,29.00
2017,05,24,00,11,22.50
2017,05,24,00,12,24.20
2017,05,24,00,13,27.40
2017,05,24,00,14,20.90
2017,05,24,00,15,27.40
2017,05,24,00,16,17.70
2017,05,24,00,17,30.60
2017,05,24,00,18,25.70
2017,05,24,00,19,33.80
2017,05,24,00,20,27.40
2017,05,24,00,21,35.40
2017,05,24,00,22,29.00
2017,05,24,00,23,25.70
2017,05,24,00,24,25.70
2017,05,24,00,25,32.20
2017,05,24,00,26,30.60
2017,05,24,00,27,29.00
2017,05,24,00,28,22.50
2017,05,24,00,29,38.60
2017,05,24,00,30,33.80
2017,05,24,00,31,22.50
2017,05,24,00,32,24.20
2017,05,24,00,33,22.50
2017,05,24,00,34,24.20
2017,05,24,00,35,19.30
2017,05,24,00,36,27.40
2017,05,24,00,37,12.90
2017,05,24,00,38,24.20
2017,05,24,00,39,22.50
2017,05,24,00,40,24.20
2017,05,24,00,41,30.60
2017,05,24,00,42,30.60
2017,05,24,00,43,29.00
2017,05,24,00,44,12.90
2017,05,24,00,45,19.30
2017,05,24,00,46,25.70
2017,05,24,00,47,24.20
2017,05,24,00,48,20.90
2017,05,24,00,49,30.60
2017,05,24,00,50,22.50
2017,05,24,00,51,22.50
2017,05,24,00,52,35.40
2017,05,24,00,53,20.90
2017,05,24,00,54,33.80
2017,05,24,00,55,29.00
2017,05,24,00,56,24.20
2017,05,24,00,57,27.40
2017,05,24,00,58,25.70
2017,05,24,00,59,22.50
2017,05,24,01,00,32.20
2017,05,24,01,01,30.60
2017,05,24,01,02,29.00
2017,05,24,01,03,29.00
2017,05,24,01,04,24.20
2017,05,24,01,05,29.00
2017,05,24,01,06,22.50
2017,05,24,01,07,19.30
2017,05,24,01,08,22.50
2017,05,24,01,09,20.90
2017,05,24,01,10,19.30
2017,05,24,01,11,20.90
2017,05,24,01,12,22.50
2017,05,24,01,13,32.20
2017,05,24,01,14,35.40
2017,05,24,01,15,29.00
2017,05,24,01,16,32.20
2017,05,24,01,17,33.80
2017,05,24,01,18,22.50
2017,05,24,01,19,20.90
2017,05,24,01,20,33.80
2017,05,24,01,21,20.90
2017,05,24,01,22,24.20
2017,05,24,01,23,19.30
2017,05,24,01,24,30.60
2017,05,24,01,25,19.30
2017,05,24,01,26,17.70
2017,05,24,01,27,33.80
2017,05,24,01,28,35.40
2017,05,24,01,29,20.90
2017,05,24,01,30,27.40
2017,05,24,01,31,16.10
2017,05,24,01,32,29.00
2017,05,24,01,33,20.90
2017,05,24,01,34,16.10
2017,05,24,01,35,30.60
2017,05,24,01,36,22.50
2017,05,24,01,37,17.70
2017,05,24,01,38,19.30
2017,05,24,01,39,19.30
2017,05,24,01,40,12.90
2017,05,24,01,41,30.60
2017,05,24,01,42,32.20
2017,05,24,01,43,17.70
2017,05,24,01,44,19.30
2017,05,24,01,45,20.90
2017,05,24,01,46,17.70
2017,05,24,01,47,17.70
2017,05,24,01,48,22.50
2017,05,24,01,49,25.70
2017,05,24,01,50,33.80
2017,05,24,01,51,33.80
2017,05,24,01,52,33.80
2017,05,24,01,53,35.40
2017,05,24,01,54,35.40
2017,05,24,01,55,35.40
2017,05,24,01,56,41.80
2017,05,24,01,57,33.80
2017,05,24,01,58,29.00
2017,05,24,01,59,30.60
2017,05,24,02,00,30.60
2017,05,24,02,01,22.50
2017,05,24,02,02,27.40
2017,05,24,02,03,37.00
2017,05,24,02,04,25.70
2017,05,24,02,05,33.80
2017,05,24,02,06,29.00
2017,05,24,02,07,30.60
2017,05,24,02,08,29.00
2017,05,24,02,09,24.20
2017,05,24,02,10,37.00
2017,05,24,02,11,33.80
2017,05,24,02,12,22.50
2017,05,24,02,13,27.40
2017,05,24,02,14,41.80
2017,05,24,02,15,38.60
2017,05,24,02,16,19.30
2017,05,24,02,17,22.50
2017,05,24,02,18,14.50
2017,05,24,02,19,35.40
2017,05,24,02,20,45.10
2017,05,24,02,21,17.70
2017,05,24,02,22,29.00
2017,05,24,02,23,27.40
2017,05,24,02,24,35.40
2017,05,24,02,25,32.20
2017,05,24,02,26,29.00
2017,05,24,02,27,32.20
2017,05,24,02,28,35.40
2017,05,24,02,29,30.60
2017,05,24,02,30,27.40
2017,05,24,02,31,24.20
2017,05,24,02,32,24.20
2017,05,24,02,33,29.00
2017,05,24,02,34,22.50
2017,05,24,02,35,35.40
2017,05,24,02,36,27.40
2017,05,24,02,37,30.60
2017,05,24,02,38,24.20
2017,05,24,02,39,33.80
2017,05,24,02,40,24.20
2017,05,24,02,41,25.70
2017,05,24,02,42,24.20
2017,05,24,02,43,27.40
2017,05,24,02,44,33.80
2017,05,24,02,45,33.80
2017,05,24,02,46,22.50
2017,05,24,02,47,22.50
2017,05,24,02,48,32.20
2017,05,24,02,49,17.70
2017,05,24,02,50,25.70
2017,05,24,02,51,25.70
2017,05,24,02,52,20.90
2017,05,24,02,53,22.50
2017,05,24,02,54,29.00
2017,05,24,02,55,29.00
2017,05,24,02,56,24.20
2017,05,24,02,57,24.20
2017,05,24,02,58,25.70
2017,05,24,02,59,19.30
2017,05,24,03,00,20.90
2017,05,24,03,01,24.20
2017,05,24,03,02,35.40
2017,05,24,03,03,22.50
2017,05,24,03,04,12.90
2017,05,24,03,05,17.70
2017,05,24,03,06,33.80
2017,05,24,03,07,17.70
2017,05,24,03,08,19.30
2017,05,24,03,09,24.20
2017,05,24,03,10,22.50
2017,05,24,03,11,30.60
2017,05,24,03,12,20.90
2017,05,24,03,13,12.90
2017,05,24,03,14,29.00
2017,05,24,03,15,20.90
2017,05,24,03,16,19.30
2017,05,24,03,17,25.70
2017,05,24,03,18,19.30
2017,05,24,03,19,29.00
2017,05,24,03,20,17.70
2017,05,24,03,21,19.30
2017,05,24,03,22,19.30
2017,05,24,03,23,30.60
2017,05,24,03,24,24.20
2017,05,24,03,25,11.30
2017,05,24,03,26,29.00
2017,05,24,03,27,24.20
2017,05,24,03,28,43.50
2017,05,24,03,29,29.00
2017,05,24,03,30,25.70
2017,05,24,03,31,14.50
2017,05,24,03,32,27.40
2017,05,24,03,33,30.60
2017,05,24,03,34,20.90
2017,05,24,03,35,16.10
2017,05,24,03,36,20.90
2017,05,24,03,37,29.00
2017,05,24,03,38,29.00
2017,05,24,03,39,20.90
2017,05,24,03,40,32.20
2017,05,24,03,41,20.90
2017,05,24,03,42,29.00
2017,05,24,03,43,19.30
2017,05,24,03,44,22.50
2017,05,24,03,45,20.90
2017,05,24,03,46,19.30
2017,05,24,03,47,20.90
2017,05,24,03,48,20.90
2017,05,24,03,49,19.30
2017,05,24,03,50,14.50
2017,05,24,03,51,32.20
2017,05,24,03,52,24.20
2017,05,24,03,53,25.70
2017,05,24,03,54,24.20
2017,05,24,03,55,24.20
2017,05,24,03,56,17.70
2017,05,24,03,57,17.70
2017,05,24,03,58,19.30
2017,05,24,03,59,17.70
2017,05,24,04,00,17.70
2017,05,24,04,01,17.70
2017,05,24,04,02,25.70
2017,05,24,04,03,20.90
2017,05,24,04,04,25.70
2017,05,24,04,05,35.40
2017,05,24,04,06,27.40
2017,05,24,04,07,24.20
2017,05,24,04,08,27.40
2017,05,24,04,09,29.00
2017,05,24,04,10,24.20
2017,05,24,04,11,24.20
2017,05,24,04,12,24.20
2017,05,24,04,13,30.60
2017,05,24,04,14,20.90
2017,05,24,04,15,29.00
2017,05,24,04,16,24.20
2017,05,24,04,17,22.50
2017,05,24,04,18,19.30
2017,05,24,04,19,17.70
2017,05,24,04,20,38.60
2017,05,24,04,21,35.40
2017,05,24,04,22,24.20
2017,05,24,04,23,12.90
2017,05,24,04,24,17.70
2017,05,24,04,25,20.90
2017,05,24,04,26,22.50
2017,05,24,04,27,30.60
2017,05,24,04,28,20.90
2017,05,24,04,29,35.40
2017,05,24,04,30,22.50
2017,05,24,04,31,30.60
2017,05,24,04,32,25.70
2017,05,24,04,33,22.50
2017,05,24,04,34,17.70
2017,05,24,04,35,20.90
2017,05,24,04,36,20.90
2017,05,24,04,37,33.80
2017,05,24,04,38,24.20
2017,05,24,04,39,22.50
2017,05,24,04,40,17.70
2017,05,24,04,41,20.90
2017,05,24,04,42,24.20
2017,05,24,04,43,20.90
2017,05,24,04,44,17.70
2017,05,24,04,45,22.50
2017,05,24,04,46,20.90
2017,05,24,04,47,40.20
2017,05,24,04,48,27.40
2017,05,24,04,49,25.70
2017,05,24,04,50,24.20
2017,05,24,04,51,29.00
2017,05,24,04,52,22.50
2017,05,24,04,53,22.50
2017,05,24,04,54,27.40
2017,05,24,04,55,24.20
2017,05,24,04,56,17.70
2017,05,24,04,57,20.90
2017,05,24,04,58,24.20
2017,05,24,04,59,14.50
2017,05,24,05,00,29.00
2017,05,24,05,01,29.00
2017,05,24,05,02,24.20
2017,05,24,05,03,27.40
2017,05,24,05,04,24.20
2017,05,24,05,05,22.50
2017,05,24,05,06,20.90
2017,05,24,05,07,27.40
2017,05,24,05,08,25.70
2017,05,24,05,09,25.70
2017,05,24,05,10,25.70
2017,05,24,05,11,25.70
2017,05,24,05,12,25.70
2017,05,24,05,13,25.70
2017,05,24,05,14,22.50
2017,05,24,05,15,20.90
2017,05,24,05,16,22.50
2017,05,24,05,17,19.30
2017,05,24,05,18,25.70
2017,05,24,05,19,24.20
2017,05,24,05,20,32.20
2017,05,24,05,21,24.20
2017,05,24,05,22,30.60
2017,05,24,05,23,40.20
2017,05,24,05,24,27.40
2017,05,24,05,25,27.40
2017,05,24,05,26,32.20
2017,05,24,05,27,30.60
2017,05,24,05,28,22.50
2017,05,24,05,29,24.20
2017,05,24,05,30,35.40
2017,05,24,05,31,29.00
2017,05,24,05,32,19.30
2017,05,24,05,33,30.60
2017,05,24,05,34,24.20
2017,05,24,05,35,24.20
2017,05,24,05,36,24.20
2017,05,24,05,37,30.60
2017,05,24,05,38,30.60
2017,05,24,05,39,24.20
2017,05,24,05,40,22.50
2017,05,24,05,41,22.50
2017,05,24,05,42,29.00
2017,05,24,05,43,19.30
2017,05,24,05,44,30.60
2017,05,24,05,45,22.50
2017,05,24,05,46,29.00
2017,05,24,05,47,19.30
2017,05,24,05,48,17.70
2017,05,24,05,49,25.70
2017,05,24,05,50,29.00
2017,05,24,05,51,32.20
2017,05,24,05,52,20.90
2017,05,24,05,53,22.50
2017,05,24,05,54,24.20
2017,05,24,05,55,24.20
2017,05,24,05,56,24.20
2017,05,24,05,57,30.60
2017,05,24,05,58,20.90
2017,05,24,05,59,22.50
2017,05,24,06,00,19.30
2017,05,24,06,01,12.90
2017,05,24,06,02,20.90
2017,05,24,06,03,22.50
2017,05,24,06,04,20.90
2017,05,24,06,05,22.50
2017,05,24,06,06,12.90
2017,05,24,06,07,17.70
2017,05,24,06,08,20.90
2017,05,24,06,09,8.10
2017,05,24,06,10,16.10
2017,05,24,06,11,20.90
2017,05,24,06,12,9.60
2017,05,24,06,13,20.90
2017,05,24,06,14,17.70
2017,05,24,06,15,17.70
2017,05,24,06,16,12.90
2017,05,24,06,17,11.30
2017,05,24,06,18,20.90
2017,05,24,06,19,12.90
2017,05,24,06,20,17.70
2017,05,24,06,21,9.60
2017,05,24,06,22,19.30
2017,05,24,06,23,14.50
2017,05,24,06,24,19.30
2017,05,24,06,25,17.70
2017,05,24,06,26,19.30
2017,05,24,06,27,14.50
2017,05,24,06,28,12.90
2017,05,24,06,29,14.50
2017,05,24,06,30,24.20
2017,05,24,06,31,19.30
2017,05,24,06,32,16.10
2017,05,24,06,33,19.30
2017,05,24,06,34,17.70
2017,05,24,06,35,19.30
2017,05,24,06,36,20.90
2017,05,24,06,37,12.90
2017,05,24,06,38,19.30
2017,05,24,06,39,11.30
2017,05,24,06,40,17.70
2017,05,24,06,41,11.30
2017,05,24,06,42,19.30
2017,05,24,06,43,19.30
2017,05,24,06,44,20.90
2017,05,24,06,45,14.50
2017,05,24,06,46,22.50
2017,05,24,06,47,17.70
2017,05,24,06,48,11.30
2017,05,24,06,49,16.10
2017,05,24,06,50,19.30
2017,05,24,06,51,17.70
2017,05,24,06,52,11.30
2017,05,24,06,53,11.30
2017,05,24,06,54,17.70
2017,05,24,06,55,16.10
2017,05,24,06,56,16.10
2017,05,24,06,57,14.50
2017,05,24,06,58,14.50
2017,05,24,06,59,27.40
2017,05,24,07,00,20.90
2017,05,24,07,01,20.90
2017,05,24,07,02,12.90
2017,05,24,07,03,6.40
2017,05,24,07,04,12.90
2017,05,24,07,05,8.10
2017,05,24,07,06,8.10
2017,05,24,07,07,11.30
2017,05,24,07,08,12.90
2017,05,24,07,09,20.90
2017,05,24,07,10,20.90
2017,05,24,07,11,12.90
2017,05,24,07,12,12.90
2017,05,24,07,13,14.50
2017,05,24,07,14,9.60
2017,05,24,07,15,9.60
2017,05,24,07,16,12.90
2017,05,24,07,17,12.90
2017,05,24,07,18,19.30
2017,05,24,07,19,24.20
2017,05,24,07,20,14.50
2017,05,24,07,21,12.90
2017,05,24,07,22,17.70
2017,05,24,07,23,14.50
2017,05,24,07,24,12.90
2017,05,24,07,25,9.60
2017,05,24,07,26,12.90
2017,05,24,07,27,12.90
2017,05,24,07,28,9.60
2017,05,24,07,29,19.30
2017,05,24,07,30,9.60
2017,05,24,07,31,12.90
2017,05,24,07,32,17.70
2017,05,24,07,33,9.60
2017,05,24,07,34,17.70
2017,05,24,07,35,8.10
2017,05,24,07,36,11.30
2017,05,24,07,37,11.30
2017,05,24,07,38,19.30
2017,05,24,07,39,17.70
2017,05,24,07,40,19.30
2017,05,24,07,41,17.70
2017,05,24,07,42,17.70
2017,05,24,07,43,14.50
2017,05,24,07,44,14.50
2017,05,24,07,45,12.90
2017,05,24,07,46,19.30
2017,05,24,07,47,12.90
2017,05,24,07,48,11.30
2017,05,24,07,49,29.00
2017,05,24,07,50,19.30
2017,05,24,07,51,17.70
2017,05,24,07,52,11.30
2017,05,24,07,53,17.70
2017,05,24,07,54,17.70
2017,05,24,07,55,19.30
2017,05,24,07,56,16.10
2017,05,24,07,57,16.10
2017,05,24,07,58,12.90
2017,05,24,07,59,9.60
2017,05,24,08,00,11.30
2017,05,24,08,01,22.50
2017,05,24,08,02,19.30
2017,05,24,08,03,20.90
2017,05,24,08,04,17.70
2017,05,24,08,05,19.30
2017,05,24,08,06,22.50
2017,05,24,08,07,12.90
2017,05,24,08,08,17.70
2017,05,24,08,09,16.10
2017,05,24,08,10,16.10
2017,05,24,08,11,19.30
2017,05,24,08,12,20.90
2017,05,24,08,13,8.10
2017,05,24,08,14,8.10
2017,05,24,08,15,11.30
2017,05,24,08,16,12.90
2017,05,24,08,17,16.10
2017,05,24,08,18,4.80
2017,05,24,08,19,14.50
2017,05,24,08,20,11.30
2017,05,24,08,21,24.20
2017,05,24,08,22,19.30
2017,05,24,08,23,16.10
2017,05,24,08,24,24.20
2017,05,24,08,25,19.30
2017,05,24,08,26,12.90
2017,05,24,08,27,12.90
2017,05,24,08,28,19.30
2017,05,24,08,29,24.20
2017,05,24,08,30,22.50
2017,05,24,08,31,14.50
2017,05,24,08,32,22.50
2017,05,24,08,33,24.20
2017,05,24,08,34,22.50
2017,05,24,08,35,11.30
2017,05,24,08,36,20.90
2017,05,24,08,37,16.10
2017,05,24,08,38,17.70
2017,05,24,08,39,12.90
2017,05,24,08,40,19.30
2017,05,24,08,41,22.50
2017,05,24,08,42,20.90
2017,05,24,08,43,16.10
2017,05,24,08,44,17.70
2017,05,24,08,45,16.10
2017,05,24,08,46,9.60
2017,05,24,08,47,9.60
2017,05,24,08,48,12.90
2017,05,24,08,49,20.90
2017,05,24,08,50,33.80
2017,05,24,08,51,19.30
2017,05,24,08,52,20.90
2017,05,24,08,53,19.30
2017,05,24,08,54,25.70
2017,05,24,08,55,25.70
2017,05,24,08,56,9.60
2017,05,24,08,57,14.50
2017,05,24,08,58,22.50
2017,05,24,08,59,24.20
2017,05,24,09,00,22.50
2017,05,24,09,01,24.20
2017,05,24,09,02,14.50
2017,05,24,09,03,14.50
2017,05,24,09,04,20.90
2017,05,24,09,05,19.30
2017,05,24,09,06,19.30
2017,05,24,09,07,16.10
2017,05,24,09,08,12.90
2017,05,24,09,09,20.90
2017,05,24,09,10,22.50
2017,05,24,09,11,16.10
2017,05,24,09,12,17.70
2017,05,24,09,13,9.60
2017,05,24,09,14,14.50
2017,05,24,09,15,11.30
2017,05,24,09,16,16.10
2017,05,24,09,17,12.90
2017,05,24,09,18,19.30
2017,05,24,09,19,19.30
2017,05,24,09,20,14.50
2017,05,24,09,21,14.50
2017,05,24,09,22,12.90
2017,05,24,09,23,9.60
2017,05,24,09,24,12.90
2017,05,24,09,25,24.20
2017,05,24,09,26,19.30
2017,05,24,09,27,16.10
2017,05,24,09,28,19.30
2017,05,24,09,29,17.70
2017,05,24,09,30,22.50
2017,05,24,09,31,11.30
2017,05,24,09,32,29.00
2017,05,24,09,33,24.20
2017,05,24,09,34,19.30
2017,05,24,09,35,11.30
2017,05,24,09,36,14.50
2017,05,24,09,37,19.30
2017,05,24,09,38,16.10
2017,05,24,09,39,29.00
2017,05,24,09,40,19.30
2017,05,24,09,41,17.70
2017,05,24,09,42,19.30
2017,05,24,09,43,12.90
2017,05,24,09,44,8.10
2017,05,24,09,45,9.60
2017,05,24,09,46,11.30
2017,05,24,09,47,12.90
2017,05,24,09,48,16.10
2017,05,24,09,49,14.50
2017,05,24,09,50,25.70
2017,05,24,09,51,16.10
2017,05,24,09,52,20.90
2017,05,24,09,53,11.30
2017,05,24,09,54,14.50
2017,05,24,09,55,11.30
2017,05,24,09,56,14.50
2017,05,24,09,57,19.30
2017,05,24,09,58,17.70
2017,05,24,09,59,20.90
2017,05,24,10,00,19.30
2017,05,24,10,01,19.30
2017,05,24,10,02,14.50
2017,05,24,10,03,20.90
2017,05,24,10,04,11.30
2017,05,24,10,05,14.50
2017,05,24,10,06,22.50
2017,05,24,10,07,19.30
2017,05,24,10,08,16.10
2017,05,24,10,09,16.10
2017,05,24,10,10,12.90
2017,05,24,10,11,12.90
2017,05,24,10,12,20.90
2017,05,24,10,13,19.30
2017,05,24,10,14,17.70
2017,05,24,10,15,22.50
2017,05,24,10,16,14.50
2017,05,24,10,17,9.60
2017,05,24,10,18,12.90
2017,05,24,10,19,22.50
2017,05,24,10,20,12.90
2017,05,24,10,21,17.70
2017,05,24,10,22,22.50
2017,05,24,10,23,14.50
2017,05,24,10,24,19.30
2017,05,24,10,25,29.00
2017,05,24,10,26,14.50
2017,05,24,10,27,20.90
2017,05,24,10,28,29.00
2017,05,24,10,29,30.60
2017,05,24,10,30,24.20
2017,05,24,10,31,24.20
2017,05,24,10,32,20.90
2017,05,24,10,33,25.70
2017,05,24,10,34,20.90
2017,05,24,10,35,24.20
2017,05,24,10,36,22.50
2017,05,24,10,37,32.20
2017,05,24,10,38,22.50
2017,05,24,10,39,20.90
2017,05,24,10,40,27.40
2017,05,24,10,41,24.20
2017,05,24,10,42,24.20
2017,05,24,10,43,20.90
2017,05,24,10,44,33.80
2017,05,24,10,45,11.30
2017,05,24,10,46,27.40
2017,05,24,10,47,22.50
2017,05,24,10,48,17.70
2017,05,24,10,49,20.90
2017,05,24,10,50,19.30
2017,05,24,10,51,19.30
2017,05,24,10,52,22.50
2017,05,24,10,53,22.50
2017,05,24,10,54,9.60
2017,05,24,10,55,25.70
2017,05,24,10,56,20.90
2017,05,24,10,57,25.70
2017,05,24,10,58,17.70
2017,05,24,10,59,19.30
2017,05,24,11,00,22.50
2017,05,24,11,01,19.30
2017,05,24,11,02,17.70
2017,05,24,11,03,25.70
2017,05,24,11,04,20.90
2017,05,24,11,05,29.00
2017,05,24,11,06,30.60
2017,05,24,11,07,25.70
2017,05,24,11,08,20.90
2017,05,24,11,09,29.00
2017,05,24,11,10,22.50
2017,05,24,11,11,29.00
2017,05,24,11,12,38.60
2017,05,24,11,13,37.00
2017,05,24,11,14,20.90
2017,05,24,11,15,33.80
2017,05,24,11,16,29.00
2017,05,24,11,17,30.60
2017,05,24,11,18,27.40
2017,05,24,11,19,22.50
2017,05,24,11,20,19.30
2017,05,24,11,21,30.60
2017,05,24,11,22,24.20
2017,05,24,11,23,29.00
2017,05,24,11,24,29.00
2017,05,24,11,25,29.00
2017,05,24,11,26,29.00
2017,05,24,11,27,22.50
2017,05,24,11,28,24.20
2017,05,24,11,29,25.70
2017,05,24,11,30,29.00
2017,05,24,11,31,16.10
2017,05,24,11,32,29.00
2017,05,24,11,33,29.00
2017,05,24,11,34,20.90
2017,05,24,11,35,12.90
2017,05,24,11,36,22.50
2017,05,24,11,37,20.90
2017,05,24,11,38,12.90
2017,05,24,11,39,9.60
2017,05,24,11,40,16.10
2017,05,24,11,41,24.20
2017,05,24,11,42,24.20
2017,05,24,11,43,24.20
2017,05,24,11,44,24.20
2017,05,24,11,45,24.20
2017,05,24,11,46,25.70
2017,05,24,11,47,25.70
2017,05,24,11,48,19.30
2017,05,24,11,49,20.90
2017,05,24,11,50,24.20
2017,05,24,11,51,27.40
2017,05,24,11,52,32.20
2017,05,24,11,53,25.70
2017,05,24,11,54,27.40
2017,05,24,11,55,22.50
2017,05,24,11,56,17.70
2017,05,24,11,57,25.70
2017,05,24,11,58,12.90
2017,05,24,11,59,16.10
2017,05,24,12,00,33.80
2017,05,24,12,01,35.40
2017,05,24,12,02,17.70
2017,05,24,12,03,17.70
2017,05,24,12,04,24.20
2017,05,24,12,05,22.50
2017,05,24,12,06,24.20
2017,05,24,12,07,25.70
2017,05,24,12,08,16.10
2017,05,24,12,09,12.90
2017,05,24,12,10,19.30
2017,05,24,12,11,19.30
2017,05,24,12,12,19.30
2017,05,24,12,13,16.10
2017,05,24,12,14,20.90
2017,05,24,12,15,30.60
2017,05,24,12,16,17.70
2017,05,24,12,17,16.10
2017,05,24,12,18,8.10
2017,05,24,12,19,19.30
2017,05,24,12,20,20.90
2017,05,24,12,21,14.50
2017,05,24,12,22,20.90
2017,05,24,12,23,12.90
2017,05,24,12,24,19.30
2017,05,24,12,25,22.50
2017,05,24,12,26,16.10
2017,05,24,12,27,29.00
2017,05,24,12,28,29.00
2017,05,24,12,29,16.10
2017,05,24,12,30,22.50
2017,05,24,12,31,14.50
2017,05,24,12,32,24.20
2017,05,24,12,33,17.70
2017,05,24,12,34,30.60
2017,05,24,12,35,30.60
2017,05,24,12,36,11.30
2017,05,24,12,37,11.30
2017,05,24,12,38,11.30
2017,05,24,12,39,11.30
2017,05,24,12,40,22.50
2017,05,24,12,41,22.50
2017,05,24,12,42,17.70
2017,05,24,12,43,12.90
2017,05,24,12,44,22.50
2017,05,24,12,45,20.90
2017,05,24,12,46,22.50
2017,05,24,12,47,20.90
2017,05,24,12,48,29.00
2017,05,24,12,49,16.10
2017,05,24,12,50,24.20
2017,05,24,12,51,20.90
2017,05,24,12,52,25.70
2017,05,24,12,53,14.50
2017,05,24,12,54,22.50
2017,05,24,12,55,19.30
2017,05,24,12,56,16.10
2017,05,24,12,57,24.20
2017,05,24,12,58,22.50
2017,05,24,12,59,19.30
2017,05,24,13,00,25.70
2017,05,24,13,01,33.80
2017,05,24,13,02,29.00
2017,05,24,13,03,24.20
2017,05,24,13,04,37.00
2017,05,24,13,05,37.00
2017,05,24,13,06,29.00
2017,05,24,13,07,20.90
2017,05,24,13,08,22.50
2017,05,24,13,09,24.20
2017,05,24,13,10,30.60
2017,05,24,13,11,20.90
2017,05,24,13,12,22.50
2017,05,24,13,13,17.70
2017,05,24,13,14,24.20
2017,05,24,13,15,29.00
2017,05,24,13,16,27.40
2017,05,24,13,17,24.20
2017,05,24,13,18,25.70
2017,05,24,13,19,12.90
2017,05,24,13,20,16.10
2017,05,24,13,21,17.70
2017,05,24,13,22,29.00
2017,05,24,13,23,20.90
2017,05,24,13,24,22.50
2017,05,24,13,25,16.10
2017,05,24,13,26,22.50
2017,05,24,13,27,25.70
2017,05,24,13,28,25.70
2017,05,24,13,29,19.30
2017,05,24,13,30,29.00
2017,05,24,13,31,22.50
2017,05,24,13,32,20.90
2017,05,24,13,33,22.50
2017,05,24,13,34,20.90
2017,05,24,13,35,9.60
2017,05,24,13,36,17.70
2017,05,24,13,37,20.90
2017,05,24,13,38,17.70
2017,05,24,13,39,17.70
2017,05,24,13,40,12.90
2017,05,24,13,41,17.70
2017,05,24,13,42,17.70
2017,05,24,13,43,19.30
2017,05,24,13,44,19.30
2017,05,24,13,45,24.20
2017,05,24,13,46,17.70
2017,05,24,13,47,17.70
2017,05,24,13,48,22.50
2017,05,24,13,49,24.20
2017,05,24,13,50,24.20
2017,05,24,13,51,22.50
2017,05,24,13,52,22.50
2017,05,24,13,53,20.90
2017,05,24,13,54,22.50
2017,05,24,13,55,22.50
2017,05,24,13,56,17.70
2017,05,24,13,57,22.50
2017,05,24,13,58,9.60
2017,05,24,13,59,17.70
2017,05,24,14,00,20.90
2017,05,24,14,01,22.50
2017,05,24,14,02,22.50
2017,05,24,14,03,20.90
2017,05,24,14,04,17.70
2017,05,24,14,05,16.10
2017,05,24,14,06,25.70
2017,05,24,14,07,17.70
2017,05,24,14,08,17.70
2017,05,24,14,09,16.10
2017,05,24,14,10,12.90
2017,05,24,14,11,11.30
2017,05,24,14,12,14.50
2017,05,24,14,13,20.90
2017,05,24,14,14,19.30
2017,05,24,14,15,20.90
2017,05,24,14,16,22.50
2017,05,24,14,17,14.50
2017,05,24,14,18,8.10
2017,05,24,14,19,14.50
2017,05,24,14,20,8.10
2017,05,24,14,21,19.30
2017,05,24,14,22,19.30
2017,05,24,14,23,16.10
2017,05,24,14,24,20.90
2017,05,24,14,25,14.50
2017,05,24,14,26,19.30
2017,05,24,14,27,17.70
2017,05,24,14,28,14.50
2017,05,24,14,29,11.30
2017,05,24,14,30,14.50
2017,05,24,14,31,16.10
2017,05,24,14,32,19.30
2017,05,24,14,33,20.90
2017,05,24,14,34,22.50
2017,05,24,14,35,20.90
2017,05,24,14,36,17.70
2017,05,24,14,37,16.10
2017,05,24,14,38,19.30
2017,05,24,14,39,17.70
2017,05,24,14,40,12.90
2017,05,24,14,41,16.10
2017,05,24,14,42,19.30
2017,05,24,14,43,17.70
2017,05,24,14,44,11.30
2017,05,24,14,45,14.50
2017,05,24,14,46,14.50
2017,05,24,14,47,22.50
2017,05,24,14,48,22.50
2017,05,24,14,49,9.60
2017,05,24,14,50,20.90
2017,05,24,14,51,14.50
2017,05,24,14,52,19.30
2017,05,24,14,53,19.30
2017,05,24,14,54,24.20
2017,05,24,14,55,20.90
2017,05,24,14,56,20.90
2017,05,24,14,57,19.30
2017,05,24,14,58,16.10
2017,05,24,14,59,12.90
2017,05,24,15,00,12.90
2017,05,24,15,01,19.30
2017,05,24,15,02,20.90
2017,05,24,15,03,9.60
2017,05,24,15,04,11.30
2017,05,24,15,05,11.30
2017,05,24,15,06,16.10
2017,05,24,15,07,12.90
2017,05,24,15,08,16.10
2017,05,24,15,09,16.10
2017,05,24,15,10,14.50
2017,05,24,15,11,17.70
2017,05,24,15,12,19.30
2017,05,24,15,13,24.20
2017,05,24,15,14,12.90
2017,05,24,15,15,17.70
2017,05,24,15,16,12.90
2017,05,24,15,17,11.30
2017,05,24,15,18,11.30
2017,05,24,15,19,14.50
2017,05,24,15,20,9.60
2017,05,24,15,21,16.10
2017,05,24,15,22,12.90
2017,05,24,15,23,14.50
2017,05,24,15,24,9.60
2017,05,24,15,25,17.70
2017,05,24,15,26,17.70
2017,05,24,15,27,16.10
2017,05,24,15,28,14.50
2017,05,24,15,29,12.90
2017,05,24,15,30,12.90
2017,05,24,15,31,17.70
2017,05,24,15,32,14.50
2017,05,24,15,33,14.50
2017,05,24,15,34,14.50
2017,05,24,15,35,19.30
2017,05,24,15,36,9.60
2017,05,24,15,37,11.30
2017,05,24,15,38,9.60
2017,05,24,15,39,6.40
2017,05,24,15,40,16.10
2017,05,24,15,41,12.90
2017,05,24,15,42,11.30
2017,05,24,15,43,11.30
2017,05,24,15,44,14.50
2017,05,24,15,45,22.50
2017,05,24,15,46,19.30
2017,05,24,15,47,12.90
2017,05,24,15,48,14.50
2017,05,24,15,49,17.70
2017,05,24,15,50,19.30
2017,05,24,15,51,12.90
2017,05,24,15,52,8.10
2017,05,24,15,53,17.70
2017,05,24,15,54,12.90
2017,05,24,15,55,16.10
2017,05,24,15,56,12.90
2017,05,24,15,57,17.70
2017,05,24,15,58,16.10
2017,05,24,15,59,12.90
2017,05,24,16,00,12.90
2017,05,24,16,01,12.90
2017,05,24,16,02,11.30
2017,05,24,16,03,9.60
2017,05,24,16,04,11.30
2017,05,24,16,05,19.30
2017,05,24,16,06,8.10
2017,05,24,16,07,16.10
2017,05,24,16,08,17.70
2017,05,24,16,09,12.90
2017,05,24,16,10,12.90
2017,05,24,16,11,11.30
2017,05,24,16,12,11.30
2017,05,24,16,13,17.70
2017,05,24,16,14,9.60
2017,05,24,16,15,16.10
2017,05,24,16,16,8.10
2017,05,24,16,17,9.60
2017,05,24,16,18,8.10
2017,05,24,16,19,8.10
2017,05,24,16,20,9.60
2017,05,24,16,21,11.30
2017,05,24,16,22,6.40
2017,05,24,16,23,9.60
2017,05,24,16,24,8.10
2017,05,24,16,25,4.80
2017,05,24,16,26,6.40
2017,05,24,16,27,9.60
2017,05,24,16,28,4.80
2017,05,24,16,29,6.40
2017,05,24,16,30,11.30
2017,05,24,16,31,11.30
2017,05,24,16,32,6.40
2017,05,24,16,33,6.40
2017,05,24,16,34,8.10
2017,05,24,16,35,8.10
2017,05,24,16,36,9.60
2017,05,24,16,37,8.10
2017,05,24,16,38,11.30
2017,05,24,16,39,11.30
2017,05,24,16,40,12.90
2017,05,24,16,41,11.30
2017,05,24,16,42,11.30
2017,05,24,16,43,11.30
2017,05,24,16,44,8.10
2017,05,24,16,45,9.60
2017,05,24,16,46,8.10
2017,05,24,16,47,8.10
2017,05,24,16,48,9.60
2017,05,24,16,49,9.60
2017,05,24,16,50,6.40
2017,05,24,16,51,8.10
2017,05,24,16,52,9.60
2017,05,24,16,53,8.10
2017,05,24,16,54,4.80
2017,05,24,16,55,6.40
2017,05,24,16,56,12.90
2017,05,24,16,57,9.60
2017,05,24,16,58,8.10
2017,05,24,16,59,8.10
2017,05,24,17,00,9.60
2017,05,24,17,01,6.40
2017,05,24,17,02,12.90
2017,05,24,17,03,9.60
2017,05,24,17,04,8.10
2017,05,24,17,05,4.80
2017,05,24,17,06,8.10
2017,05,24,17,07,6.40
2017,05,24,17,08,6.40
2017,05,24,17,09,11.30
2017,05,24,17,10,9.60
2017,05,24,17,11,6.40
2017,05,24,17,12,6.40
2017,05,24,17,13,8.10
2017,05,24,17,14,8.10
2017,05,24,17,15,8.10
2017,05,24,17,16,8.10
2017,05,24,17,17,4.80
2017,05,24,17,18,8.10
2017,05,24,17,19,6.40
2017,05,24,17,20,3.20
2017,05,24,17,21,6.40
2017,05,24,17,22,8.10
2017,05,24,17,23,6.40